• Em Portugal
  • Lista de países
  • Para 7 dias
  • Temperatura da água
  • Mapas de satélite
  • Mapa do tempo
  • Widgets de tempo
  • user-avatar
    Iniciar Sessão

    Previsão horária em Turgovisto

    Hoje, 25 Setembro, Terça-feira

    Tempo Temperatura Precipitação Vento Pressão Humidade
    00:00 +12°C° 0.5 mm 7 m/s 747 mmHg 65%
    01:00 +11°C° 0.5 mm 6 m/s 747 mmHg 67%
    02:00 +12°C° 0.5 mm 5 m/s 748 mmHg 68%
    03:00 +12°C° 0.2 mm 5 m/s 748 mmHg 68%
    04:00 +11°C° 0.2 mm 4 m/s 748 mmHg 68%
    05:00 +11°C° 0.2 mm 4 m/s 749 mmHg 67%
    06:00 +11°C° 0 mm 4 m/s 749 mmHg 65%
    07:00 +11°C° 0 mm 4 m/s 750 mmHg 63%
    08:00 +10°C° 0 mm 5 m/s 750 mmHg 61%
    09:00 +13°C° 0 mm 5 m/s 750 mmHg 55%
    10:00 +14°C° 0 mm 5 m/s 750 mmHg 49%
    11:00 +15°C° 0 mm 5 m/s 751 mmHg 43%
    12:00 +16°C° 0 mm 5 m/s 751 mmHg 40%
    13:00 +16°C° 0 mm 5 m/s 751 mmHg 37%
    14:00 +17°C° 0 mm 5 m/s 751 mmHg 33%
    15:00 +16°C° 0 mm 5 m/s 751 mmHg 35%
    16:00 +16°C° 0 mm 5 m/s 751 mmHg 37%
    17:00 +15°C° 0 mm 4 m/s 751 mmHg 39%
    18:00 +14°C° 0 mm 4 m/s 751 mmHg 42%
    19:00 +13°C° 0 mm 3 m/s 752 mmHg 46%
    20:00 +13°C° 0 mm 2 m/s 753 mmHg 50%
    21:00 +12°C° 0 mm 2 m/s 753 mmHg 50%
    22:00 +10°C° 0 mm 2 m/s 754 mmHg 50%
    23:00 +10°C° 0 mm 2 m/s 754 mmHg 50%

    Amanhã, 26 Setembro, Quarta-feira

    Tempo Temperatura Precipitação Vento Pressão Humidade
    00:00 +9°C° 0 mm 2 m/s 754 mmHg 51%
    01:00 +9°C° 0 mm 2 m/s 755 mmHg 53%
    02:00 +8°C° 0 mm 2 m/s 755 mmHg 55%
    03:00 +7°C° 0 mm 3 m/s 755 mmHg 57%
    04:00 +7°C° 0 mm 3 m/s 755 mmHg 59%
    05:00 +7°C° 0 mm 3 m/s 755 mmHg 62%
    06:00 +7°C° 0 mm 4 m/s 756 mmHg 58%
    07:00 +8°C° 0 mm 5 m/s 756 mmHg 55%
    08:00 +9°C° 0 mm 6 m/s 756 mmHg 51%
    09:00 +10°C° 0 mm 6 m/s 757 mmHg 46%
    10:00 +12°C° 0 mm 7 m/s 757 mmHg 41%
    11:00 +14°C° 0 mm 7 m/s 757 mmHg 36%
    12:00 +14°C° 0 mm 7 m/s 756 mmHg 35%
    13:00 +15°C° 0 mm 7 m/s 756 mmHg 33%
    14:00 +15°C° 0 mm 7 m/s 756 mmHg 32%
    15:00 +15°C° 0 mm 6 m/s 756 mmHg 32%
    16:00 +14°C° 0 mm 6 m/s 755 mmHg 33%
    17:00 +14°C° 0 mm 6 m/s 755 mmHg 34%
    18:00 +12°C° 0 mm 5 m/s 755 mmHg 37%
    19:00 +11°C° 0 mm 4 m/s 756 mmHg 40%
    20:00 +9°C° 0 mm 3 m/s 756 mmHg 44%
    21:00 +9°C° 0 mm 3 m/s 756 mmHg 46%
    22:00 +8°C° 0 mm 3 m/s 756 mmHg 48%
    23:00 +7°C° 0 mm 3 m/s 757 mmHg 51%

    Depois de amanhã, 27 Setembro, Quinta-feira

    Tempo Temperatura Precipitação Vento Pressão Humidade
    00:00 +7°C° 0 mm 3 m/s 756 mmHg 52%
    01:00 +6°C° 0 mm 2 m/s 756 mmHg 54%
    02:00 +6°C° 0 mm 2 m/s 756 mmHg 55%
    03:00 +5°C° 0 mm 2 m/s 756 mmHg 56%
    04:00 +5°C° 0 mm 2 m/s 756 mmHg 58%
    05:00 +5°C° 0 mm 2 m/s 755 mmHg 59%
    06:00 +6°C° 0 mm 2 m/s 755 mmHg 54%
    07:00 +7°C° 0 mm 3 m/s 755 mmHg 50%
    08:00 +8°C° 0 mm 3 m/s 756 mmHg 45%
    09:00 +10°C° 0 mm 4 m/s 755 mmHg 40%
    10:00 +12°C° 0 mm 4 m/s 755 mmHg 35%
    11:00 +14°C° 0 mm 5 m/s 755 mmHg 30%
    12:00 +15°C° 0 mm 5 m/s 755 mmHg 29%
    13:00 +16°C° 0 mm 5 m/s 754 mmHg 27%
    14:00 +17°C° 0 mm 5 m/s 753 mmHg 26%
    15:00 +18°C° 0 mm 4 m/s 753 mmHg 26%
    16:00 +17°C° 0 mm 4 m/s 752 mmHg 27%
    17:00 +17°C° 0 mm 4 m/s 752 mmHg 28%
    18:00 +14°C° 0 mm 3 m/s 752 mmHg 32%
    19:00 +13°C° 0 mm 2 m/s 752 mmHg 36%
    20:00 +11°C° 0 mm 1 m/s 752 mmHg 39%
    21:00 +10°C° 0 mm 1 m/s 752 mmHg 42%
    22:00 +9°C° 0 mm 1 m/s 752 mmHg 44%
    23:00 +9°C° 0 mm 1 m/s 752 mmHg 46%

    28 Setembro, Sexta-feira

    Tempo Temperatura Precipitação Vento Pressão Humidade
    00:00 +9°C° 0 mm 1 m/s 751 mmHg 48%
    01:00 +8°C° 0 mm 1 m/s 751 mmHg 49%
    02:00 +8°C° 0 mm 1 m/s 751 mmHg 51%
    03:00 +8°C° 0 mm 1 m/s 750 mmHg 51%
    04:00 +8°C° 0 mm 1 m/s 750 mmHg 51%
    05:00 +8°C° 0 mm 1 m/s 750 mmHg 51%
    06:00 +9°C° 0 mm 1 m/s 750 mmHg 47%
    07:00 +11°C° 0 mm 1 m/s 750 mmHg 44%
    08:00 +12°C° 0 mm 1 m/s 750 mmHg 41%
    09:00 +14°C° 0 mm 2 m/s 750 mmHg 39%
    10:00 +17°C° 0 mm 2 m/s 750 mmHg 37%
    11:00 +19°C° 0 mm 3 m/s 749 mmHg 35%
    12:00 +20°C° 0 mm 3 m/s 749 mmHg 34%
    13:00 +21°C° 0 mm 3 m/s 748 mmHg 32%
    14:00 +22°C° 0 mm 3 m/s 748 mmHg 30%
    15:00 +21°C° 0 mm 3 m/s 747 mmHg 32%
    16:00 +21°C° 0 mm 2 m/s 747 mmHg 35%
    17:00 +20°C° 0 mm 2 m/s 746 mmHg 37%
    18:00 +18°C° 0 mm 2 m/s 746 mmHg 45%
    19:00 +16°C° 0 mm 2 m/s 746 mmHg 53%
    20:00 +14°C° 0 mm 1 m/s 746 mmHg 61%
    21:00 +14°C° 0 mm 1 m/s 746 mmHg 65%
    22:00 +13°C° 0 mm 1 m/s 746 mmHg 70%
    23:00 +13°C° 0 mm 1 m/s 745 mmHg 74%

    29 Setembro, Sábado

    Tempo Temperatura Precipitação Vento Pressão Humidade
    00:00 +12°C° 0 mm 1 m/s 745 mmHg 75%
    01:00 +12°C° 0 mm 1 m/s 745 mmHg 76%
    02:00 +12°C° 0 mm 1 m/s 745 mmHg 77%
    03:00 +12°C° 0 mm 1 m/s 745 mmHg 77%
    04:00 +12°C° 0 mm 1 m/s 745 mmHg 77%
    05:00 +11°C° 0 mm 0 m/s 744 mmHg 76%
    06:00 +12°C° 0 mm 0 m/s 744 mmHg 72%
    07:00 +13°C° 0 mm 0 m/s 744 mmHg 67%
    08:00 +15°C° 0 mm 0 m/s 744 mmHg 62%
    09:00 +17°C° 0 mm 0 m/s 745 mmHg 55%
    10:00 +21°C° 0 mm 1 m/s 745 mmHg 48%
    11:00 +23°C° 0 mm 1 m/s 745 mmHg 42%
    12:00 +23°C° 0 mm 1 m/s 745 mmHg 39%
    13:00 +24°C° 0 mm 1 m/s 744 mmHg 37%
    14:00 +24°C° 0 mm 1 m/s 744 mmHg 35%
    15:00 +24°C° 0 mm 1 m/s 744 mmHg 36%
    16:00 +24°C° 0 mm 2 m/s 744 mmHg 37%
    17:00 +23°C° 0 mm 2 m/s 744 mmHg 38%
    18:00 +21°C° 0 mm 2 m/s 744 mmHg 43%
    19:00 +19°C° 0 mm 2 m/s 745 mmHg 48%
    20:00 +18°C° 0 mm 1 m/s 745 mmHg 54%
    21:00 +18°C° 0 mm 1 m/s 745 mmHg 58%
    22:00 +16°C° 0 mm 1 m/s 746 mmHg 62%
    23:00 +15°C° 0 mm 1 m/s 746 mmHg 67%

    30 Setembro, Domingo

    Tempo Temperatura Precipitação Vento Pressão Humidade
    00:00 +15°C° 0 mm 2 m/s 746 mmHg 71%
    01:00 +14°C° 0 mm 2 m/s 746 mmHg 75%
    02:00 +12°C° 0 mm 3 m/s 747 mmHg 80%
    03:00 +12°C° 0 mm 3 m/s 747 mmHg 84%
    04:00 +12°C° 0 mm 2 m/s 747 mmHg 88%
    05:00 +12°C° 0 mm 2 m/s 747 mmHg 92%
    06:00 +12°C° 0 mm 3 m/s 748 mmHg 89%
    07:00 +12°C° 0 mm 3 m/s 748 mmHg 85%
    08:00 +13°C° 0 mm 3 m/s 748 mmHg 82%
    09:00 +16°C° 0 mm 3 m/s 748 mmHg 74%
    10:00 +18°C° 0 mm 3 m/s 748 mmHg 67%
    11:00 +19°C° 0 mm 3 m/s 749 mmHg 60%
    12:00 +20°C° 0 mm 4 m/s 748 mmHg 56%
    13:00 +21°C° 0 mm 4 m/s 748 mmHg 52%
    14:00 +22°C° 0 mm 4 m/s 748 mmHg 49%
    15:00 +22°C° 0 mm 4 m/s 748 mmHg 49%
    16:00 +21°C° 0 mm 4 m/s 748 mmHg 49%
    17:00 +21°C° 0 mm 3 m/s 748 mmHg 50%
    18:00 +19°C° 0 mm 3 m/s 748 mmHg 54%
    19:00 +17°C° 0 mm 2 m/s 748 mmHg 59%
    20:00 +15°C° 0 mm 2 m/s 748 mmHg 64%
    21:00 +15°C° 0 mm 2 m/s 748 mmHg 66%
    22:00 +14°C° 0 mm 1 m/s 748 mmHg 69%
    23:00 +13°C° 0 mm 1 m/s 748 mmHg 71%
    Mostrar mais